QPF
0.17 0.13 0.16 0.19 0.19 0.17 0.12 0.08 0.08 0.08 0.06 0.05 0.05 0.06 0.06 0.06 0.05 0.05 0.04 0.02 0.02 0.03 0.02 0.03 0.05 0.05 0.06 0.07 0.06 0.05 0.03 0.02 0.03 0.05 0.05 0.05 0.07 0.08 0.07 0.06 0.06 0.07 0.06
0.19 0.27 0.30 0.23 0.22 0.20 0.15 0.09 0.07 0.07 0.07 0.06 0.05 0.05 0.07 0.09 0.09 0.07 0.05 0.05 0.04 0.03 0.02 0.03 0.03 0.03 0.02 0.03 0.03 0.03 0.02 0.01 0.02 0.04 0.05 0.05 0.04 0.04 0.04 0.05 0.05 0.05 0.05
0.21 0.26 0.25 0.21 0.19 0.19 0.15 0.11 0.08 0.07 0.06 0.06 0.06 0.06 0.06 0.06 0.04 0.04 0.06 0.06 0.05 0.03 0.02 0.02 0.02 0.02 0.02 0.02 0.02 0.02 0.02 0.03 0.04 0.05 0.07 0.07 0.05 0.03 0.03 0.03 0.04 0.04 0.05
0.18 0.25 0.21 0.18 0.17 0.18 0.17 0.12 0.08 0.07 0.06 0.05 0.05 0.06 0.05 0.06 0.05 0.06 0.07 0.03 0.02 0.02 0.03 0.03 0.02 0.02 0.01 0.01 0.01 0.02 0.02 0.03 0.04 0.07 0.07 0.06 0.06 0.05 0.04 0.04 0.04 0.05 0.05
0.11 0.16 0.17 0.15 0.12 0.12 0.12 0.10 0.08 0.07 0.06 0.05 0.05 0.04 0.05 0.06 0.06 0.06 0.05 0.04 0.03 0.03 0.02 0.02 0.02 0.02 0.02 0.01 0.01 0.01 0.01 0.02 0.02 0.03 0.05 0.05 0.05 0.05 0.05 0.05 0.04 0.05 0.06
0.09 0.09 0.10 0.09 0.09 0.08 0.07 0.07 0.06 0.05 0.04 0.04 0.03 0.04 0.04 0.04 0.04 0.04 0.04 0.05 0.04 0.03 0.02 0.02 0.03 0.03 0.02 0.01 0.01 0.02 0.02 0.02 0.02 0.02 0.03 0.04 0.05 0.06 0.05 0.07 0.07 0.08 0.06
0.11 0.10 0.08 0.07 0.06 0.05 0.05 0.05 0.05 0.04 0.03 0.03 0.03 0.03 0.03 0.03 0.02 0.02 0.02 0.02 0.02 0.01 0.01 0.01 0.02 0.03 0.02 0.01 0.01 0.01 0.02 0.02 0.02 0.02 0.02 0.03 0.05 0.06 0.07 0.09 0.10 0.13 0.09
0.10 0.08 0.06 0.06 0.04 0.04 0.04 0.03 0.03 0.03 0.03 0.03 0.03 0.03 0.03 0.03 0.02 0.01 0.01 0.01 0.01 0.00 0.01 0.01 0.01 0.01 0.01 0.01 0.01 0.01 0.01 0.02 0.02 0.02 0.03 0.05 0.05 0.05 0.06 0.09 0.10 0.11 0.11
0.07 0.07 0.08 0.07 0.05 0.05 0.05 0.04 0.04 0.04 0.04 0.04 0.04 0.04 0.03 0.03 0.02 0.01 0.01 0.00 0.00 0.00 0.00 0.01 0.00 0.01 0.01 0.01 0.01 0.01 0.02 0.02 0.02 0.02 0.04 0.06 0.05 0.05 0.07 0.08 0.10 0.10 0.09
0.12 0.10 0.09 0.08 0.08 0.07 0.08 0.06 0.06 0.05 0.04 0.04 0.04 0.04 0.04 0.03 0.03 0.02 0.02 0.01 0.00 0.00 0.00 0.00 0.01 0.01 0.01 0.01 0.02 0.02 0.02 0.02 0.02 0.03 0.04 0.04 0.04 0.05 0.05 0.05 0.08 0.10 0.08
0.10 0.10 0.10 0.10 0.12 0.09 0.07 0.05 0.04 0.03 0.04 0.05 0.05 0.04 0.04 0.03 0.03 0.02 0.01 0.01 0.01 0.00 0.01 0.00 0.00 0.00 0.00 0.01 0.02 0.03 0.03 0.02 0.02 0.03 0.03 0.03 0.03 0.04 0.04 0.04 0.05 0.08 0.08
0.10 0.11 0.13 0.14 0.12 0.08 0.05 0.04 0.03 0.03 0.04 0.05 0.06 0.06 0.06 0.05 0.04 0.03 0.02 0.01 0.01 0.01 0.01 0.01 0.00 0.00 0.01 0.01 0.01 0.03 0.03 0.02 0.02 0.03 0.02 0.02 0.03 0.04 0.04 0.04 0.05 0.06 0.07
0.11 0.11 0.09 0.07 0.07 0.04 0.03 0.02 0.02 0.02 0.03 0.03 0.04 0.05 0.05 0.05 0.04 0.04 0.03 0.02 0.02 0.02 0.02 0.02 0.01 0.01 0.01 0.01 0.02 0.03 0.03 0.02 0.02 0.02 0.02 0.02 0.02 0.02 0.02 0.03 0.03 0.04 0.05
0.05 0.06 0.04 0.04 0.04 0.03 0.03 0.02 0.02 0.03 0.03 0.03 0.03 0.03 0.04 0.04 0.04 0.03 0.03 0.03 0.02 0.02 0.02 0.02 0.02 0.02 0.01 0.02 0.02 0.02 0.01 0.02 0.02 0.01 0.01 0.01 0.01 0.01 0.02 0.02 0.02 0.03 0.05
0.02 0.03 0.04 0.03 0.02 0.02 0.02 0.02 0.02 0.03 0.04 0.03 0.02 0.02 0.02 0.02 0.02 0.02 0.02 0.02 0.01 0.01 0.01 0.01 0.01 0.02 0.02 0.02 0.01 0.01 0.01 0.01 0.01 0.01 0.01 0.01 0.01 0.02 0.02 0.02 0.01 0.02 0.04
0.01 0.01 0.01 0.01 0.02 0.02 0.03 0.03 0.03 0.04 0.04 0.04 0.02 0.02 0.02 0.02 0.02 0.02 0.02 0.01 0.01 0.01 0.01 0.01 0.01 0.01 0.02 0.02 0.01 0.01 0.01 0.00 0.00 0.01 0.01 0.01 0.01 0.01 0.01 0.01 0.01 0.01 0.02
0.01 0.01 0.01 0.01 0.01 0.02 0.03 0.03 0.05 0.06 0.05 0.04 0.04 0.03 0.02 0.03 0.03 0.03 0.03 0.02 0.01 0.01 0.01 0.01 0.01 0.01 0.01 0.01 0.01 0.00 0.00 0.00 0.00 0.00 0.01 0.01 0.01 0.01 0.00 0.00 0.00 0.00 0.01
0.01 0.01 0.01 0.01 0.01 0.02 0.02 0.04 0.05 0.07 0.05 0.04 0.05 0.05 0.05 0.05 0.05 0.05 0.05 0.04 0.02 0.02 0.01 0.01 0.01 0.01 0.01 0.01 0.01 0.01 0.00 0.00 0.00 0.00 0.00 0.01 0.01 0.01 0.00 0.00 0.00 0.01 0.01
0.01 0.02 0.01 0.01 0.01 0.01 0.02 0.03 0.04 0.03 0.03 0.03 0.04 0.05 0.06 0.07 0.07 0.07 0.08 0.05 0.03 0.02 0.02 0.01 0.01 0.01 0.00 0.00 0.01 0.01 0.01 0.00 0.00 0.00 0.00 0.01 0.01 0.01 0.01 0.00 0.00 0.01 0.01
0.03 0.02 0.02 0.02 0.01 0.02 0.02 0.02 0.02 0.02 0.02 0.02 0.03 0.04 0.05 0.06 0.06 0.08 0.09 0.07 0.04 0.03 0.01 0.01 0.01 0.01 0.01 0.00 0.00 0.01 0.02 0.01 0.01 0.01 0.01 0.01 0.01 0.01 0.01 0.01 0.01 0.01 0.01
0.04 0.03 0.03 0.02 0.02 0.02 0.02 0.02 0.02 0.02 0.02 0.02 0.03 0.03 0.05 0.06 0.06 0.06 0.07 0.07 0.05 0.02 0.01 0.01 0.00 0.00 0.00 0.00 0.00 0.01 0.01 0.02 0.02 0.01 0.01 0.01 0.01 0.01 0.01 0.02 0.02 0.02 0.02
0.04 0.03 0.03 0.03 0.02 0.02 0.02 0.02 0.01 0.01 0.01 0.02 0.02 0.02 0.03 0.04 0.04 0.04 0.04 0.04 0.04 0.02 0.01 0.01 0.01 0.00 0.00 0.00 0.00 0.00 0.01 0.01 0.02 0.02 0.01 0.01 0.02 0.02 0.02 0.03 0.04 0.03 0.03
0.06 0.04 0.04 0.04 0.03 0.03 0.02 0.02 0.01 0.01 0.01 0.02 0.02 0.02 0.03 0.03 0.03 0.03 0.03 0.02 0.02 0.03 0.02 0.01 0.01 0.00 0.00 0.00 0.00 0.00 0.00 0.01 0.01 0.01 0.02 0.01 0.01 0.02 0.02 0.02 0.03 0.02 0.03
0.08 0.06 0.05 0.05 0.05 0.04 0.02 0.01 0.01 0.01 0.01 0.02 0.02 0.01 0.01 0.02 0.02 0.02 0.02 0.02 0.02 0.02 0.02 0.01 0.01 0.00 0.00 0.00 0.00 0.00 0.00 0.01 0.01 0.01 0.01 0.01 0.01 0.01 0.01 0.02 0.02 0.03 0.03
0.07 0.06 0.06 0.05 0.05 0.03 0.02 0.02 0.02 0.02 0.02 0.02 0.01 0.01 0.02 0.01 0.01 0.01 0.02 0.02 0.03 0.03 0.02 0.01 0.01 0.00 0.00 0.00 0.00 0.00 0.00 0.01 0.01 0.01 0.01 0.00 0.00 0.00 0.01 0.01 0.02 0.02 0.02
0.06 0.06 0.05 0.05 0.04 0.03 0.02 0.02 0.03 0.03 0.03 0.03 0.02 0.02 0.01 0.01 0.01 0.00 0.01 0.02 0.02 0.03 0.02 0.01 0.01 0.01 0.01 0.00 0.01 0.01 0.01 0.01 0.01 0.01 0.01 0.01 0.01 0.01 0.01 0.01 0.01 0.02 0.02
MSLP
1012.76 1012.84 1012.99 1013.17 1013.37 1013.58 1013.79 1014.00 1014.22 1014.44 1014.69 1014.93 1015.17 1015.39 1015.58 1015.72 1015.81 1015.87 1015.90 1015.92 1015.96 1016.03 1016.14 1016.27 1016.42 1016.56 1016.68 1016.74 1016.75 1016.67 1016.53 1016.31 1016.03 1015.70 1015.33 1014.93 1014.50 1014.07 1013.62 1013.19 1012.78 1012.42 1012.11
1013.06 1013.29 1013.53 1013.77 1013.98 1014.15 1014.30 1014.46 1014.63 1014.83 1015.07 1015.33 1015.60 1015.84 1016.02 1016.15 1016.20 1016.20 1016.18 1016.16 1016.18 1016.24 1016.37 1016.54 1016.72 1016.90 1017.04 1017.11 1017.10 1017.01 1016.84 1016.60 1016.32 1016.01 1015.67 1015.30 1014.91 1014.49 1014.05 1013.59 1013.14 1012.70 1012.30
1013.23 1013.60 1013.96 1014.27 1014.51 1014.68 1014.80 1014.92 1015.06 1015.25 1015.49 1015.77 1016.06 1016.32 1016.51 1016.62 1016.65 1016.61 1016.54 1016.48 1016.46 1016.51 1016.63 1016.81 1017.01 1017.21 1017.35 1017.42 1017.39 1017.29 1017.11 1016.88 1016.62 1016.34 1016.04 1015.73 1015.39 1015.00 1014.57 1014.10 1013.60 1013.10 1012.63
1013.29 1013.80 1014.28 1014.68 1014.97 1015.15 1015.27 1015.36 1015.48 1015.66 1015.91 1016.20 1016.51 1016.79 1016.99 1017.10 1017.11 1017.04 1016.94 1016.84 1016.78 1016.81 1016.91 1017.07 1017.27 1017.45 1017.58 1017.64 1017.61 1017.49 1017.32 1017.11 1016.88 1016.65 1016.41 1016.16 1015.86 1015.52 1015.10 1014.63 1014.10 1013.55 1013.02
1013.33 1013.96 1014.54 1015.02 1015.37 1015.58 1015.70 1015.79 1015.90 1016.07 1016.31 1016.61 1016.93 1017.22 1017.44 1017.55 1017.55 1017.46 1017.33 1017.21 1017.12 1017.11 1017.18 1017.31 1017.47 1017.62 1017.73 1017.77 1017.72 1017.61 1017.45 1017.26 1017.07 1016.89 1016.71 1016.51 1016.27 1015.96 1015.57 1015.09 1014.54 1013.96 1013.38
1013.42 1014.14 1014.81 1015.37 1015.77 1016.01 1016.14 1016.22 1016.32 1016.47 1016.70 1016.99 1017.30 1017.59 1017.81 1017.92 1017.92 1017.83 1017.69 1017.55 1017.43 1017.39 1017.41 1017.50 1017.61 1017.72 1017.79 1017.80 1017.74 1017.62 1017.47 1017.31 1017.16 1017.03 1016.89 1016.74 1016.54 1016.26 1015.88 1015.41 1014.85 1014.25 1013.65
1013.63 1014.40 1015.14 1015.75 1016.19 1016.46 1016.60 1016.67 1016.75 1016.87 1017.07 1017.33 1017.61 1017.88 1018.09 1018.20 1018.21 1018.12 1017.98 1017.82 1017.69 1017.61 1017.59 1017.63 1017.69 1017.74 1017.76 1017.73 1017.65 1017.52 1017.38 1017.24 1017.12 1017.02 1016.92 1016.79 1016.62 1016.36 1016.00 1015.54 1014.99 1014.39 1013.77
1013.95 1014.77 1015.54 1016.19 1016.65 1016.94 1017.08 1017.14 1017.18 1017.26 1017.41 1017.62 1017.86 1018.09 1018.28 1018.38 1018.38 1018.30 1018.17 1018.01 1017.87 1017.76 1017.70 1017.69 1017.69 1017.68 1017.64 1017.57 1017.46 1017.32 1017.18 1017.04 1016.94 1016.85 1016.77 1016.67 1016.51 1016.27 1015.92 1015.47 1014.94 1014.35 1013.75
1014.38 1015.21 1015.99 1016.65 1017.12 1017.41 1017.55 1017.59 1017.60 1017.63 1017.72 1017.86 1018.04 1018.22 1018.37 1018.44 1018.44 1018.37 1018.24 1018.09 1017.95 1017.83 1017.74 1017.67 1017.61 1017.54 1017.45 1017.33 1017.18 1017.02 1016.86 1016.73 1016.63 1016.54 1016.47 1016.37 1016.22 1015.99 1015.66 1015.24 1014.73 1014.18 1013.60
1014.84 1015.66 1016.44 1017.08 1017.55 1017.83 1017.95 1017.97 1017.95 1017.94 1017.96 1018.04 1018.15 1018.26 1018.36 1018.41 1018.40 1018.33 1018.22 1018.08 1017.94 1017.81 1017.69 1017.58 1017.47 1017.34 1017.19 1017.02 1016.83 1016.64 1016.47 1016.33 1016.22 1016.13 1016.05 1015.95 1015.80 1015.59 1015.28 1014.89 1014.42 1013.92 1013.39
1015.28 1016.07 1016.81 1017.42 1017.86 1018.12 1018.23 1018.24 1018.19 1018.14 1018.11 1018.12 1018.16 1018.22 1018.27 1018.28 1018.26 1018.19 1018.09 1017.97 1017.84 1017.71 1017.57 1017.42 1017.27 1017.09 1016.88 1016.66 1016.44 1016.22 1016.03 1015.87 1015.75 1015.65 1015.57 1015.46 1015.32 1015.11 1014.83 1014.48 1014.07 1013.62 1013.16
1015.64 1016.38 1017.06 1017.61 1018.01 1018.24 1018.34 1018.34 1018.28 1018.20 1018.14 1018.10 1018.09 1018.10 1018.10 1018.09 1018.06 1017.99 1017.91 1017.80 1017.68 1017.54 1017.39 1017.22 1017.02 1016.79 1016.54 1016.28 1016.01 1015.77 1015.56 1015.39 1015.26 1015.16 1015.07 1014.96 1014.82 1014.63 1014.38 1014.07 1013.71 1013.33 1012.94
1015.90 1016.57 1017.16 1017.63 1017.97 1018.17 1018.26 1018.26 1018.20 1018.12 1018.05 1017.99 1017.94 1017.91 1017.89 1017.85 1017.81 1017.75 1017.68 1017.58 1017.47 1017.33 1017.17 1016.96 1016.73 1016.46 1016.17 1015.87 1015.58 1015.31 1015.09 1014.92 1014.78 1014.68 1014.58 1014.48 1014.34 1014.17 1013.94 1013.67 1013.36 1013.04 1012.71
1016.06 1016.63 1017.11 1017.50 1017.77 1017.93 1018.01 1018.01 1017.97 1017.91 1017.85 1017.79 1017.73 1017.68 1017.64 1017.60 1017.55 1017.50 1017.43 1017.35 1017.24 1017.09 1016.91 1016.68 1016.41 1016.10 1015.77 1015.44 1015.13 1014.86 1014.63 1014.46 1014.32 1014.22 1014.13 1014.02 1013.89 1013.72 1013.50 1013.26 1012.99 1012.71 1012.43
1016.13 1016.58 1016.95 1017.24 1017.44 1017.57 1017.64 1017.66 1017.65 1017.61 1017.57 1017.53 1017.48 1017.43 1017.39 1017.34 1017.30 1017.25 1017.18 1017.10 1016.99 1016.83 1016.62 1016.36 1016.06 1015.71 1015.35 1015.00 1014.67 1014.39 1014.17 1014.00 1013.88 1013.79 1013.70 1013.59 1013.45 1013.27 1013.06 1012.81 1012.56 1012.30 1012.06
1016.13 1016.46 1016.72 1016.91 1017.05 1017.15 1017.21 1017.25 1017.27 1017.28 1017.27 1017.25 1017.22 1017.19 1017.15 1017.11 1017.06 1017.01 1016.95 1016.86 1016.73 1016.55 1016.31 1016.02 1015.67 1015.29 1014.90 1014.52 1014.19 1013.91 1013.70 1013.55 1013.44 1013.35 1013.27 1013.15 1013.00 1012.80 1012.56 1012.30 1012.04 1011.78 1011.55
1016.05 1016.29 1016.45 1016.57 1016.66 1016.73 1016.80 1016.86 1016.91 1016.96 1016.99 1017.00 1016.99 1016.97 1016.93 1016.90 1016.85 1016.79 1016.72 1016.61 1016.46 1016.25 1015.97 1015.63 1015.24 1014.82 1014.41 1014.02 1013.68 1013.41 1013.21 1013.08 1012.99 1012.91 1012.82 1012.70 1012.52 1012.29 1012.01 1011.71 1011.41 1011.13 1010.88
1015.92 1016.08 1016.18 1016.25 1016.31 1016.37 1016.45 1016.54 1016.62 1016.70 1016.76 1016.79 1016.80 1016.78 1016.75 1016.71 1016.66 1016.59 1016.49 1016.36 1016.17 1015.92 1015.59 1015.21 1014.78 1014.32 1013.88 1013.48 1013.14 1012.88 1012.70 1012.59 1012.52 1012.45 1012.36 1012.21 1012.00 1011.73 1011.40 1011.04 1010.69 1010.36 1010.08
1015.72 1015.85 1015.92 1015.98 1016.04 1016.11 1016.21 1016.31 1016.42 1016.52 1016.59 1016.63 1016.64 1016.63 1016.59 1016.54 1016.47 1016.38 1016.25 1016.08 1015.85 1015.55 1015.18 1014.75 1014.27 1013.79 1013.32 1012.91 1012.58 1012.33 1012.18 1012.08 1012.03 1011.97 1011.87 1011.71 1011.46 1011.14 1010.75 1010.33 1009.91 1009.52 1009.19
1015.47 1015.60 1015.69 1015.76 1015.84 1015.94 1016.06 1016.18 1016.30 1016.41 1016.48 1016.52 1016.52 1016.49 1016.44 1016.36 1016.27 1016.15 1015.99 1015.78 1015.51 1015.16 1014.74 1014.26 1013.75 1013.24 1012.76 1012.34 1012.02 1011.79 1011.65 1011.57 1011.53 1011.47 1011.37 1011.18 1010.90 1010.53 1010.09 1009.60 1009.12 1008.67 1008.29
1015.19 1015.36 1015.48 1015.59 1015.71 1015.84 1015.98 1016.12 1016.24 1016.34 1016.40 1016.42 1016.41 1016.36 1016.28 1016.18 1016.05 1015.90 1015.70 1015.45 1015.13 1014.74 1014.28 1013.76 1013.22 1012.69 1012.20 1011.79 1011.47 1011.25 1011.13 1011.07 1011.03 1010.97 1010.86 1010.65 1010.35 1009.94 1009.44 1008.91 1008.37 1007.87 1007.44
1014.91 1015.12 1015.30 1015.46 1015.62 1015.78 1015.94 1016.09 1016.21 1016.29 1016.33 1016.33 1016.29 1016.21 1016.10 1015.97 1015.82 1015.63 1015.39 1015.10 1014.74 1014.31 1013.81 1013.27 1012.71 1012.16 1011.67 1011.26 1010.95 1010.74 1010.62 1010.57 1010.53 1010.47 1010.34 1010.12 1009.79 1009.35 1008.82 1008.25 1007.68 1007.15 1006.69
1014.66 1014.92 1015.14 1015.34 1015.54 1015.73 1015.90 1016.05 1016.16 1016.23 1016.24 1016.21 1016.14 1016.04 1015.90 1015.74 1015.55 1015.33 1015.06 1014.73 1014.33 1013.87 1013.35 1012.78 1012.21 1011.66 1011.17 1010.76 1010.45 1010.25 1010.13 1010.07 1010.02 1009.94 1009.80 1009.55 1009.20 1008.75 1008.21 1007.63 1007.05 1006.51 1006.04
1014.45 1014.74 1015.00 1015.23 1015.45 1015.65 1015.82 1015.97 1016.07 1016.11 1016.11 1016.06 1015.97 1015.84 1015.68 1015.50 1015.28 1015.02 1014.72 1014.35 1013.92 1013.43 1012.89 1012.32 1011.74 1011.19 1010.70 1010.29 1009.98 1009.77 1009.64 1009.55 1009.48 1009.37 1009.20 1008.94 1008.58 1008.12 1007.59 1007.02 1006.45 1005.92 1005.47
1014.30 1014.60 1014.86 1015.10 1015.33 1015.53 1015.70 1015.83 1015.91 1015.95 1015.93 1015.87 1015.76 1015.62 1015.44 1015.23 1014.99 1014.70 1014.36 1013.97 1013.51 1013.00 1012.44 1011.86 1011.28 1010.73 1010.24 1009.83 1009.52 1009.28 1009.13 1009.01 1008.89 1008.75 1008.55 1008.26 1007.89 1007.43 1006.91 1006.37 1005.84 1005.35 1004.94
1014.19 1014.47 1014.72 1014.95 1015.16 1015.34 1015.50 1015.62 1015.69 1015.72 1015.70 1015.63 1015.52 1015.37 1015.18 1014.96 1014.69 1014.37 1014.00 1013.57 1013.09 1012.55 1011.98 1011.39 1010.81 1010.27 1009.78 1009.37 1009.04 1008.78 1008.58 1008.42 1008.25 1008.06 1007.82 1007.50 1007.12 1006.67 1006.18 1005.68 1005.20 1004.76 1004.40
Thickness
5734 5734 5733 5732 5728 5724 5722 5720 5717 5714 5711 5706 5701 5697 5692 5689 5686 5683 5679 5676 5673 5670 5667 5663 5660 5657 5654 5651 5650 5648 5647 5646 5647 5646 5646 5649 5651 5652 5654 5656 5657 5658 5660
5727 5728 5727 5726 5722 5719 5715 5713 5711 5708 5705 5702 5698 5693 5688 5683 5679 5676 5672 5669 5666 5663 5660 5656 5652 5649 5646 5644 5642 5641 5638 5637 5637 5635 5634 5634 5637 5642 5646 5647 5648 5650 5652
5723 5722 5721 5719 5717 5714 5711 5709 5706 5703 5700 5697 5693 5687 5681 5675 5670 5667 5663 5661 5658 5656 5652 5649 5646 5642 5639 5636 5634 5633 5630 5628 5628 5628 5625 5624 5625 5628 5634 5637 5640 5641 5643
5723 5720 5718 5715 5713 5711 5708 5705 5702 5698 5694 5691 5686 5680 5672 5666 5663 5660 5657 5655 5652 5649 5645 5642 5638 5634 5631 5629 5627 5625 5623 5621 5619 5619 5620 5619 5619 5618 5621 5626 5630 5633 5635
5724 5720 5716 5712 5710 5707 5702 5699 5696 5692 5688 5684 5680 5674 5667 5663 5658 5654 5650 5647 5644 5641 5638 5635 5631 5627 5625 5622 5620 5618 5616 5614 5613 5611 5611 5612 5612 5613 5613 5615 5619 5623 5627
5721 5717 5713 5708 5704 5701 5697 5693 5689 5685 5682 5678 5673 5668 5663 5658 5653 5648 5644 5639 5636 5633 5631 5628 5624 5621 5618 5616 5614 5612 5610 5608 5607 5606 5605 5605 5605 5605 5605 5607 5610 5613 5619
5716 5711 5707 5702 5699 5695 5692 5688 5683 5678 5676 5673 5668 5663 5659 5654 5649 5644 5639 5634 5630 5627 5624 5622 5619 5616 5613 5611 5609 5606 5604 5603 5602 5601 5600 5600 5600 5601 5601 5601 5603 5606 5610
5712 5708 5703 5699 5695 5691 5687 5683 5679 5674 5670 5666 5662 5658 5654 5649 5645 5641 5636 5631 5627 5623 5620 5617 5615 5612 5610 5607 5604 5602 5600 5599 5598 5597 5596 5595 5596 5597 5597 5597 5597 5598 5601
5707 5704 5700 5696 5692 5687 5683 5680 5674 5669 5665 5662 5658 5654 5649 5645 5641 5637 5633 5628 5625 5621 5617 5614 5611 5608 5605 5603 5600 5597 5596 5594 5594 5593 5592 5591 5591 5592 5593 5593 5593 5593 5593
5703 5700 5696 5691 5687 5683 5679 5675 5670 5665 5661 5657 5654 5650 5645 5641 5637 5632 5627 5624 5621 5618 5614 5610 5607 5605 5602 5599 5596 5594 5592 5590 5589 5588 5587 5587 5587 5587 5588 5589 5589 5589 5589
5697 5694 5690 5686 5681 5677 5672 5668 5664 5660 5657 5653 5650 5646 5641 5637 5633 5628 5624 5620 5617 5614 5610 5607 5604 5601 5598 5595 5592 5590 5588 5586 5585 5584 5583 5583 5583 5583 5583 5584 5584 5584 5584
5691 5688 5685 5681 5675 5670 5666 5663 5660 5656 5653 5649 5645 5641 5637 5633 5628 5624 5621 5617 5613 5610 5607 5604 5601 5598 5595 5592 5589 5586 5584 5582 5581 5580 5580 5579 5580 5579 5579 5579 5579 5579 5580
5685 5681 5678 5674 5670 5666 5662 5659 5656 5652 5649 5645 5640 5636 5632 5628 5624 5621 5618 5614 5610 5607 5604 5601 5597 5594 5591 5588 5586 5583 5581 5579 5578 5577 5576 5576 5575 5575 5575 5575 5575 5575 5576
5679 5674 5671 5668 5666 5663 5659 5656 5652 5649 5645 5641 5636 5631 5628 5625 5621 5618 5614 5611 5608 5604 5601 5598 5594 5591 5588 5585 5583 5580 5577 5575 5575 5574 5573 5573 5572 5572 5571 5571 5571 5570 5570
5674 5671 5667 5664 5662 5659 5656 5653 5649 5646 5642 5637 5632 5628 5625 5622 5619 5615 5611 5608 5604 5601 5598 5595 5591 5588 5585 5583 5580 5577 5575 5572 5571 5571 5570 5570 5570 5571 5570 5570 5568 5567 5566
5672 5669 5665 5662 5659 5657 5654 5651 5647 5643 5639 5634 5630 5627 5623 5619 5615 5612 5608 5605 5601 5598 5595 5592 5588 5585 5583 5581 5579 5576 5572 5570 5568 5567 5567 5567 5568 5568 5568 5568 5567 5566 5564
5668 5665 5662 5658 5656 5654 5651 5647 5643 5640 5635 5631 5628 5624 5621 5616 5613 5610 5605 5602 5598 5595 5591 5588 5585 5582 5581 5579 5577 5575 5571 5568 5566 5565 5564 5566 5566 5565 5564 5564 5565 5564 5563
5663 5660 5657 5654 5651 5649 5647 5644 5640 5636 5632 5628 5626 5622 5618 5615 5611 5607 5603 5599 5596 5592 5588 5585 5583 5581 5579 5578 5576 5573 5570 5567 5565 5564 5563 5562 5563 5563 5562 5561 5561 5561 5561
5659 5655 5653 5650 5647 5646 5643 5640 5636 5633 5630 5627 5623 5620 5617 5612 5608 5604 5600 5597 5593 5590 5587 5584 5582 5579 5578 5577 5574 5572 5568 5566 5565 5564 5563 5562 5561 5562 5560 5559 5558 5559 5560
5652 5650 5648 5646 5644 5642 5640 5636 5632 5629 5627 5625 5622 5619 5615 5611 5607 5603 5599 5596 5592 5589 5586 5584 5582 5579 5577 5577 5574 5572 5567 5564 5564 5564 5564 5563 5561 5561 5560 5558 5557 5557 5558
5648 5646 5643 5641 5641 5639 5636 5633 5629 5627 5625 5623 5620 5616 5613 5609 5605 5601 5598 5595 5591 5588 5585 5583 5581 5579 5578 5577 5575 5572 5567 5565 5564 5563 5563 5563 5562 5561 5560 5558 5557 5558 5558
5644 5642 5639 5637 5638 5637 5633 5630 5627 5626 5624 5621 5617 5614 5610 5607 5605 5600 5596 5593 5590 5586 5584 5581 5580 5580 5579 5578 5576 5573 5570 5567 5563 5563 5562 5562 5562 5562 5561 5560 5560 5559 5558
5640 5639 5637 5635 5634 5634 5631 5627 5626 5625 5621 5617 5614 5611 5608 5605 5602 5598 5595 5592 5589 5585 5583 5581 5579 5579 5579 5577 5576 5573 5571 5568 5564 5563 5563 5562 5562 5562 5562 5562 5561 5560 5558
5637 5636 5634 5633 5631 5631 5630 5628 5626 5624 5619 5615 5611 5608 5605 5602 5600 5597 5594 5591 5588 5586 5584 5581 5580 5579 5577 5576 5575 5573 5570 5568 5565 5563 5563 5562 5562 5561 5561 5561 5560 5559 5558
5637 5636 5633 5632 5631 5630 5628 5627 5625 5622 5617 5613 5609 5606 5603 5601 5598 5595 5593 5592 5591 5588 5585 5583 5581 5578 5577 5578 5577 5572 5570 5566 5564 5561 5560 5560 5560 5559 5559 5559 5559 5558 5557
5636 5634 5632 5631 5630 5628 5626 5625 5623 5621 5615 5611 5608 5605 5602 5599 5597 5594 5593 5594 5592 5592 5589 5586 5583 5582 5580 5579 5576 5573 5570 5566 5563 5559 5557 5558 5558 5557 5557 5557 5557 5557 5556